CAPE
0 0 0 0 0 0 0 0 0 0 0 0 0 0 0 0 0 0 0 0 0 0
0 0 0 0 0 0 0 0 0 0 0 0 0 0 0 0 0 0 0 0 0 0
0 0 0 0 0 0 0 0 0 0 0 0 0 0 0 0 0 0 0 0 0 0
0 0 0 0 0 0 0 0 0 0 0 0 0 0 0 0 0 0 0 0 0 0
0 0 0 0 0 0 0 0 0 0 0 0 0 0 0 0 0 0 0 0 0 0
0 0 0 0 0 0 0 0 0 0 0 0 0 0 0 0 0 0 0 0 0 0
0 0 0 0 0 0 0 0 0 0 0 0 0 0 0 0 0 0 0 0 0 0
0 0 0 0 0 0 0 0 0 0 0 0 0 0 0 0 0 0 0 0 0 0
0 0 0 0 0 0 0 0 0 0 0 0 0 0 0 0 0 0 0 0 0 0
0 0 0 0 0 0 0 0 0 0 0 0 0 0 0 0 0 0 0 0 0 0
0 0 0 0 0 0 0 0 0 0 0 0 0 0 0 0 0 0 0 0 0 0
0 0 0 0 0 0 0 0 0 0 0 0 0 0 0 0 0 0 0 0 0 0
0 0 0 0 0 0 0 0 0 0 0 0 0 0 0 0 0 0 0 0 0 0
0 0 0 0 0 0 0 0 0 0 0 0 0 0 0 0 0 0 0 0 0 0
CIN
0 0 0 0 0 0 0 0 0 0 0 0 0 0 0 0 0 0 0 0 0 0
0 0 0 0 0 0 0 0 0 0 0 0 0 0 0 0 0 0 0 0 0 0
0 0 0 0 0 0 0 0 0 0 0 0 0 0 0 0 0 0 0 0 0 0
0 0 0 0 0 0 0 0 0 0 0 0 0 0 0 0 0 0 0 0 0 0
0 0 0 0 0 0 0 0 0 0 0 0 0 0 0 0 0 0 0 0 0 0
0 0 0 0 0 0 0 0 0 0 0 0 0 0 0 0 0 0 0 0 0 0
0 0 0 0 0 0 0 0 0 0 0 0 0 0 0 0 0 0 0 0 0 0
0 0 0 0 0 0 0 0 0 0 0 0 0 0 0 0 0 0 0 0 0 0
0 0 0 0 0 0 0 0 0 0 0 0 0 0 0 0 0 0 0 0 0 0
0 0 0 0 0 0 0 0 0 0 0 0 0 0 0 0 0 0 0 0 0 0
0 0 0 0 0 0 0 0 0 0 0 0 0 0 0 0 0 0 0 0 0 0
0 0 0 0 0 0 0 0 0 0 0 0 0 0 0 0 0 0 0 0 0 0
0 0 0 0 0 0 0 0 0 0 0 0 0 0 0 0 0 0 0 0 0 0
0 0 0 0 0 0 0 0 0 0 0 0 0 0 0 0 0 0 0 0 0 -1
Wind_Speed
6 4 3 4 3 3 2 2 2 2 3 4 3 3 3 2 3 3 3 5 4 3
5 5 4 4 3 3 2 2 3 3 3 3 3 3 2 3 4 2 3 5 5 4
6 5 4 4 4 3 2 1 2 2 1 1 2 3 2 3 3 3 4 4 5 4
5 5 4 4 3 4 3 3 3 2 2 2 3 3 3 3 4 3 4 4 5 6
6 6 5 5 4 4 5 4 3 3 4 4 4 4 4 4 5 4 5 5 5 6
6 6 6 5 4 5 5 4 4 4 4 4 4 4 4 4 4 4 4 5 5 6
6 6 6 5 5 5 4 4 4 4 4 4 4 4 4 4 5 5 5 6 5 6
6 6 6 5 5 4 5 4 4 4 4 4 4 3 5 5 6 6 6 6 5 6
6 6 5 5 4 4 4 4 4 5 4 5 3 10 12 8 5 6 6 6 7 6
6 6 4 4 5 5 4 3 4 5 6 6 6 12 14 14 4 6 6 7 7 8
6 5 4 5 5 3 2 4 3 4 5 6 6 14 16 17 6 6 7 7 8 8
5 5 4 4 3 2 2 3 3 4 6 6 7 15 17 15 6 6 7 7 7 8
5 5 4 2 2 1 2 2 4 6 5 9 7 14 17 15 6 7 6 6 7 13
4 4 3 2 1 2 3 4 5 6 6 7 7 8 16 18 8 7 9 8 8 7
Wind_Direction
161 160 170 167 164 172 175 185 170 183 213 228 236 242 231 233 243 236 250 266 248 259
164 163 173 171 163 163 181 177 157 176 202 227 245 255 251 252 266 266 271 270 274 262
175 172 166 155 169 171 161 128 148 194 225 305 310 295 283 295 304 293 288 273 277 278
169 161 154 152 144 151 114 109 120 112 88 40 7 3 359 333 309 311 306 306 304 298
138 138 131 129 125 124 107 84 92 73 56 33 12 355 351 330 324 319 321 317 315 297
127 126 126 120 116 98 97 80 55 53 38 12 356 347 334 320 316 311 302 299 299 295
130 127 123 119 105 91 80 72 49 34 18 9 348 333 329 327 316 305 291 293 294 299
122 111 112 104 90 83 69 58 43 26 7 357 336 316 327 321 313 305 306 303 296 289
110 114 111 98 86 71 51 38 29 8 353 339 320 323 330 328 310 309 301 298 299 285
122 117 108 93 73 53 36 16 1 351 348 329 320 326 331 326 291 284 283 283 282 287
126 116 92 73 56 29 22 10 346 333 330 323 315 326 330 328 309 288 273 269 274 278
123 110 87 69 32 12 24 345 339 311 325 328 311 327 328 327 307 288 286 280 277 282
111 108 96 70 21 346 351 321 327 327 321 319 311 317 328 332 319 311 310 297 276 287
106 96 83 59 25 357 343 343 350 336 319 307 298 298 324 330 325 312 309 307 303 293